Location: Newark
(45.0500°N, 41.9667°E)
Time: 03:02:48
(UTC+00:00)

Starlink (trailer) - Pass Details

Date: 24 July 2019
Orbit: 549 x 550 km, 53.0° (Epoch: 20 August)

Event Time Altitude Azimuth Distance (km) Brightness Sun altitude
Exits shadow 22:45:40 16° 287° (WNW) 1,484 5.7 -22.2°
Maximum altitude 22:48:26 33° 345° (NNW) 939 5.2 -22.0°
Drops below altitude 10° 22:52:13 10° 51° (NE) 1,828 7.2 -21.8°
Sets 22:54:38 0° 61° (ENE) 2,724 8.0 -21.6°
